Location: Cardiff
(53.7833°N, 113.6000°W)
Time: 22:38:31
(UTC+00:00)

Oscar 19 - Pass Details

Date: 09 December 2023
Orbit: 771 x 789 km, 98.9° (Epoch: 04 March)

Event Time Altitude Azimuth Distance (km) Brightness Sun altitude
Rises 14:47:51 0° 8° (N) 3,276 13.6 -7.1°
Reaches altitude 10° 14:51:17 10° 344° (NNW) 2,347 12.7 -6.7°
Maximum altitude 14:53:50 14° 314° (NW) 2,081 12.2 -6.4°
Drops below altitude 10° 14:56:23 10° 284° (WNW) 2,347 12.5 -6.0°
Sets 14:59:49 0° 260° (W) 3,275 13.4 -5.6°
